| time (UTC) | temp F | wind direction | speed knots | gust knots | rain 1hr in | rain 24hr in | rain mn in | humidity % | barometer mb |
| 20260507143232 | 72 | 88 | 0.0 | 0.0 | 0.00 | 0.00 | 0.00 | 32 | 1013.8 |
| 20260507142728 | 72 | 58 | 0.0 | 0.0 | 0.00 | 0.00 | 0.00 | 32 | 1014.0 |
| 20260507142225 | 72 | 62 | 0.0 | 0.0 | 0.00 | 0.00 | 0.00 | 32 | 1014.2 |
| 20260507141721 | 71 | 90 | 0.0 | 0.0 | 0.00 | 0.00 | 0.00 | 35 | 1014.1 |
| 20260507141218 | 69 | 87 | 0.0 | 0.0 | 0.00 | 0.00 | 0.00 | 37 | 1014.0 |
| 20260507140714 | 68 | 79 | 0.0 | 0.0 | 0.00 | 0.00 | 0.00 | 38 | 1014.0 |
| 20260507140212 | 68 | 86 | 0.0 | 0.0 | 0.00 | 0.00 | 0.00 | 40 | 1013.9 |
| 20260507135709 | 67 | 82 | 0.0 | 0.0 | 0.00 | 0.00 | 0.00 | 40 | 1014.1 |
| 20260507135206 | 67 | 93 | 0.0 | 0.0 | 0.00 | 0.00 | 0.00 | 41 | 1014.0 |
| 20260507134702 | 67 | 84 | 0.0 | 0.0 | 0.00 | 0.00 | 0.00 | 40 | 1013.8 |
| 20260507134159 | 67 | 86 | 0.0 | 0.0 | 0.00 | 0.00 | 0.00 | 39 | 1014.0 |
| 20260507133654 | 66 | 95 | 0.0 | 0.0 | 0.00 | 0.00 | 0.00 | 45 | 1014.0 |
| 20260507133152 | 65 | 104 | 0.0 | 0.0 | 0.00 | 0.00 | 0.00 | 41 | 1013.9 |
| 20260507132649 | 64 | 88 | 0.0 | 0.0 | 0.00 | 0.00 | 0.00 | 41 | 1013.8 |
| 20260507132145 | 64 | 90 | 0.0 | 0.0 | 0.00 | 0.00 | 0.00 | 42 | 1013.8 |
| 20260507131643 | 64 | 90 | 0.0 | 0.0 | 0.00 | 0.00 | 0.00 | 42 | 1013.8 |
| 20260507131140 | 63 | 98 | 0.0 | 0.0 | 0.00 | 0.00 | 0.00 | 45 | 1013.6 |
| 20260507130636 | 62 | 99 | 0.0 | 0.0 | 0.00 | 0.00 | 0.00 | 45 | 1013.6 |
| 20260507130134 | 62 | 103 | 0.0 | 0.0 | 0.00 | 0.00 | 0.00 | 44 | 1013.5 |
| 20260507125633 | 62 | 89 | 0.0 | 0.0 | 0.00 | 0.00 | 0.00 | 44 | 1013.3 |
| 20260507125130 | 61 | 81 | 0.0 | 0.0 | 0.00 | 0.00 | 0.00 | 45 | 1013.5 |
| 20260507124626 | 60 | 81 | 0.0 | 0.0 | 0.00 | 0.00 | 0.00 | 46 | 1013.3 |
| 20260507124124 | 60 | 100 | 0.0 | 0.0 | 0.00 | 0.00 | 0.00 | 45 | 1013.2 |
| 20260507123622 | 61 | 102 | 0.0 | 0.0 | 0.00 | 0.00 | 0.00 | 45 | 1013.6 |
| 20260507123119 | 61 | 105 | 0.0 | 0.0 | 0.00 | 0.00 | 0.00 | 44 | 1013.4 |
| 20260507122614 | 61 | 111 | 0.0 | 0.9 | 0.00 | 0.00 | 0.00 | 44 | 1013.4 |
| 20260507122110 | 61 | 111 | 0.0 | 0.0 | 0.00 | 0.00 | 0.00 | 47 | 1013.4 |
| 20260507121606 | 61 | 102 | 0.0 | 0.0 | 0.00 | 0.00 | 0.00 | 47 | 1013.1 |
| 20260507121102 | 61 | 111 | 0.0 | 0.0 | 0.00 | 0.00 | 0.00 | 46 | 1013.2 |
| 20260507120558 | 61 | 102 | 0.0 | 0.0 | 0.00 | 0.00 | 0.00 | 50 | 1013.3 |
| 20260507120055 | 62 | 98 | 0.0 | 0.0 | 0.00 | 0.00 | 0.00 | 49 | 1013.2 |
| 20260507115551 | 62 | 85 | 0.0 | 0.0 | 0.00 | 0.00 | 0.00 | 47 | 1013.3 |
| 20260507115047 | 62 | 85 | 0.0 | 0.0 | 0.00 | 0.00 | 0.00 | 47 | 1013.3 |
| 20260507114543 | 62 | 90 | 0.0 | 0.0 | 0.00 | 0.00 | 0.00 | 47 | 1013.5 |
| 20260507114041 | 62 | 118 | 0.0 | 0.0 | 0.00 | 0.00 | 0.00 | 46 | 1013.2 |
| 20260507113538 | 62 | 82 | 0.0 | 0.0 | 0.00 | 0.00 | 0.00 | 46 | 1013.2 |
| 20260507113035 | 62 | 83 | 0.0 | 0.0 | 0.00 | 0.00 | 0.00 | 45 | 1013.2 |
| 20260507112533 | 61 | 86 | 0.0 | 0.0 | 0.00 | 0.00 | 0.00 | 47 | 1013.3 |
| 20260507112029 | 62 | 87 | 0.0 | 0.0 | 0.00 | 0.00 | 0.00 | 47 | 1013.4 |
| 20260507111527 | 62 | 83 | 0.0 | 0.0 | 0.00 | 0.00 | 0.00 | 46 | 1013.1 |
| 20260507111023 | 62 | 83 | 0.0 | 0.0 | 0.00 | 0.00 | 0.00 | 46 | 1013.4 |
| 20260507110519 | 63 | 80 | 0.0 | 0.0 | 0.00 | 0.00 | 0.00 | 45 | 1013.3 |
| 20260507110016 | 62 | 82 | 0.0 | 0.0 | 0.00 | 0.00 | 0.00 | 45 | 1013.4 |
| 20260507105513 | 63 | 73 | 0.0 | 0.0 | 0.00 | 0.00 | 0.00 | 44 | 1013.5 |
| 20260507105009 | 63 | 83 | 0.0 | 0.0 | 0.00 | 0.00 | 0.00 | 43 | 1013.3 |
| 20260507104507 | 63 | 88 | 0.0 | 0.0 | 0.00 | 0.00 | 0.00 | 42 | 1013.8 |
| 20260507104003 | 63 | 80 | 0.0 | 0.0 | 0.00 | 0.00 | 0.00 | 42 | 1013.6 |
| 20260507103500 | 63 | 92 | 0.0 | 0.0 | 0.00 | 0.00 | 0.00 | 43 | 1013.4 |
| 20260507102955 | 63 | 93 | 0.0 | 0.0 | 0.00 | 0.00 | 0.00 | 42 | 1013.8 |
| 20260507102452 | 63 | 96 | 0.0 | 0.0 | 0.00 | 0.00 | 0.00 | 41 | 1013.8 |
| 20260507101948 | 63 | 97 | 0.0 | 0.0 | 0.00 | 0.00 | 0.00 | 43 | 1013.6 |
| 20260507101443 | 64 | 98 | 0.0 | 0.0 | 0.00 | 0.00 | 0.00 | 42 | 1013.8 |
| 20260507100940 | 64 | 86 | 0.0 | 0.0 | 0.00 | 0.00 | 0.00 | 42 | 1013.6 |
| 20260507100438 | 64 | 88 | 0.0 | 0.0 | 0.00 | 0.00 | 0.00 | 40 | 1014.0 |
| 20260507095936 | 64 | 87 | 0.0 | 0.0 | 0.00 | 0.00 | 0.00 | 40 | 1014.0 |
| 20260507095433 | 64 | 102 | 0.0 | 0.0 | 0.00 | 0.00 | 0.00 | 40 | 1013.8 |
| 20260507094930 | 64 | 120 | 0.0 | 0.0 | 0.00 | 0.00 | 0.00 | 40 | 1014.1 |
| 20260507094426 | 65 | 89 | 0.0 | 0.0 | 0.00 | 0.00 | 0.00 | 39 | 1013.9 |
| 20260507093923 | 65 | 86 | 0.0 | 0.0 | 0.00 | 0.00 | 0.00 | 39 | 1014.1 |
| 20260507093421 | 65 | 84 | 0.0 | 0.0 | 0.00 | 0.00 | 0.00 | 40 | 1014.1 |
| 20260507092920 | 65 | 79 | 0.0 | 0.0 | 0.00 | 0.00 | 0.00 | 39 | 1014.2 |
| 20260507092415 | 65 | 89 | 0.0 | 0.0 | 0.00 | 0.00 | 0.00 | 40 | 1014.4 |
| 20260507091912 | 66 | 93 | 0.0 | 0.0 | 0.00 | 0.00 | 0.00 | 39 | 1014.1 |
| 20260507091408 | 65 | 81 | 0.0 | 0.0 | 0.00 | 0.00 | 0.00 | 40 | 1013.9 |
| 20260507090904 | 65 | 86 | 0.0 | 0.0 | 0.00 | 0.00 | 0.00 | 40 | 1014.1 |
| 20260507090401 | 65 | 86 | 0.0 | 0.0 | 0.00 | 0.00 | 0.00 | 41 | 1014.2 |
| 20260507085858 | 64 | 97 | 0.0 | 0.0 | 0.00 | 0.00 | 0.00 | 41 | 1014.3 |
| 20260507085354 | 65 | 90 | 0.0 | 0.0 | 0.00 | 0.00 | 0.00 | 41 | 1014.3 |
| 20260507084851 | 65 | 89 | 0.0 | 0.0 | 0.00 | 0.00 | 0.00 | 39 | 1014.3 |
| 20260507084348 | 65 | 78 | 0.0 | 0.0 | 0.00 | 0.00 | 0.00 | 39 | 1014.2 |
| 20260507083845 | 65 | 93 | 0.0 | 0.0 | 0.00 | 0.00 | 0.00 | 40 | 1014.3 |
| 20260507083341 | 66 | 98 | 0.0 | 0.0 | 0.00 | 0.00 | 0.00 | 40 | 1014.1 |
| 20260507082838 | 66 | 98 | 0.0 | 0.0 | 0.00 | 0.00 | 0.00 | 38 | 1014.1 |
| 20260507082334 | 67 | 88 | 0.0 | 0.0 | 0.00 | 0.00 | 0.00 | 37 | 1014.3 |
| 20260507081831 | 67 | 83 | 0.0 | 0.0 | 0.00 | 0.00 | 0.00 | 36 | 1014.3 |
| 20260507081327 | 67 | 85 | 0.0 | 0.0 | 0.00 | 0.00 | 0.00 | 38 | 1014.3 |
| 20260507080824 | 66 | 86 | 0.0 | 0.0 | 0.00 | 0.00 | 0.00 | 39 | 1014.2 |
| 20260507080320 | 66 | 96 | 0.0 | 0.0 | 0.00 | 0.00 | 0.00 | 39 | 1014.3 |
| 20260507075815 | 66 | 96 | 0.0 | 0.0 | 0.00 | 0.00 | 0.00 | 39 | 1014.1 |
| 20260507075312 | 67 | 93 | 0.0 | 0.0 | 0.00 | 0.00 | 0.00 | 38 | 1014.4 |
| 20260507074809 | 67 | 90 | 0.0 | 0.0 | 0.00 | 0.00 | 0.00 | 36 | 1014.3 |
| 20260507074306 | 68 | 89 | 0.0 | 0.0 | 0.00 | 0.00 | 0.00 | 37 | 1014.4 |
| 20260507073803 | 68 | 92 | 0.0 | 0.0 | 0.00 | 0.00 | 0.00 | 38 | 1014.3 |
| 20260507073300 | 68 | 81 | 0.0 | 0.0 | 0.00 | 0.00 | 0.00 | 39 | 1014.4 |
| 20260507072757 | 68 | 88 | 0.0 | 0.0 | 0.00 | 0.00 | 0.00 | 37 | 1014.3 |
| 20260507072254 | 69 | 82 | 0.0 | 0.0 | 0.00 | 0.00 | 0.00 | 35 | 1014.0 |
| 20260507071752 | 69 | 78 | 0.0 | 0.0 | 0.00 | 0.00 | 0.00 | 36 | 1014.2 |
| 20260507071248 | 69 | 73 | 0.0 | 0.0 | 0.00 | 0.00 | 0.00 | 37 | 1014.3 |
| 20260507070745 | 69 | 70 | 0.0 | 0.0 | 0.00 | 0.00 | 0.00 | 37 | 1014.2 |
| 20260507070242 | 69 | 85 | 0.0 | 0.0 | 0.00 | 0.00 | 0.00 | 38 | 1014.0 |
| 20260507065738 | 69 | 90 | 0.0 | 0.0 | 0.00 | 0.00 | 0.00 | 37 | 1014.1 |
| 20260507065235 | 70 | 88 | 0.0 | 0.0 | 0.00 | 0.00 | 0.00 | 38 | 1014.2 |
| 20260507064733 | 70 | 86 | 0.0 | 0.0 | 0.00 | 0.00 | 0.00 | 36 | 1014.1 |
| 20260507064232 | 71 | 84 | 0.0 | 0.0 | 0.00 | 0.00 | 0.00 | 36 | 1014.3 |
| 20260507063728 | 71 | 75 | 0.0 | 0.0 | 0.00 | 0.00 | 0.00 | 34 | 1014.1 |
| 20260507063225 | 72 | 73 | 0.0 | 0.0 | 0.00 | 0.00 | 0.00 | 30 | 1014.2 |
| 20260507062722 | 73 | 70 | 0.0 | 0.0 | 0.00 | 0.00 | 0.00 | 28 | 1014.3 |
| 20260507062220 | 73 | 92 | 0.0 | 0.0 | 0.00 | 0.00 | 0.00 | 28 | 1014.1 |
| 20260507061717 | 74 | 29 | 0.0 | 0.0 | 0.00 | 0.00 | 0.00 | 27 | 1014.1 |
| 20260507061215 | 74 | 149 | 0.0 | 0.0 | 0.00 | 0.00 | 0.00 | 27 | 1014.1 |
| 20260507060713 | 74 | 97 | 0.0 | 0.0 | 0.00 | 0.00 | 0.00 | 27 | 1014.4 |
| 20260507060209 | 75 | 305 | 0.0 | 0.0 | 0.00 | 0.00 | 0.00 | 27 | 1014.1 |
| 20260507055705 | 75 | 102 | 0.0 | 0.0 | 0.00 | 0.00 | 0.00 | 27 | 1014.0 |
| 20260507055201 | 75 | 344 | 0.0 | 0.0 | 0.00 | 0.00 | 0.00 | 26 | 1014.0 |
| 20260507054657 | 75 | 142 | 0.0 | 0.0 | 0.00 | 0.00 | 0.00 | 27 | 1014.2 |
| 20260507054154 | 75 | 237 | 0.0 | 0.9 | 0.00 | 0.00 | 0.00 | 27 | 1014.0 |
| 20260507053652 | 74 | 216 | 0.0 | 0.0 | 0.00 | 0.00 | 0.00 | 27 | 1014.0 |
| 20260507053150 | 74 | 73 | 0.0 | 0.0 | 0.00 | 0.00 | 0.00 | 27 | 1013.8 |
| 20260507052648 | 74 | 260 | 0.0 | 0.0 | 0.00 | 0.00 | 0.00 | 28 | 1014.1 |
| 20260507052144 | 74 | 160 | 0.0 | 0.0 | 0.00 | 0.00 | 0.00 | 28 | 1014.2 |
| 20260507051642 | 74 | 122 | 0.0 | 0.0 | 0.00 | 0.00 | 0.00 | 28 | 1014.3 |
| 20260507051138 | 75 | 105 | 0.0 | 0.0 | 0.00 | 0.00 | 0.00 | 28 | 1013.9 |
| 20260507050635 | 75 | 162 | 0.0 | 0.0 | 0.00 | 0.00 | 0.00 | 27 | 1014.0 |
| 20260507050132 | 75 | 79 | 0.0 | 0.0 | 0.00 | 0.00 | 0.00 | 28 | 1014.0 |
| 20260507045629 | 75 | 81 | 0.0 | 0.0 | 0.00 | 0.00 | 0.00 | 27 | 1014.0 |
| 20260507045126 | 75 | 12 | 0.0 | 0.0 | 0.00 | 0.00 | 0.00 | 27 | 1013.8 |
| 20260507044622 | 75 | 37 | 0.0 | 0.0 | 0.00 | 0.00 | 0.00 | 27 | 1013.9 |
| 20260507044120 | 76 | 6 | 0.0 | 0.0 | 0.00 | 0.00 | 0.00 | 27 | 1013.8 |
| 20260507043615 | 76 | 332 | 0.0 | 0.0 | 0.00 | 0.00 | 0.00 | 26 | 1014.0 |
| 20260507043113 | 76 | 9 | 0.0 | 0.0 | 0.00 | 0.00 | 0.00 | 26 | 1013.8 |
| 20260507042609 | 76 | 20 | 0.0 | 0.0 | 0.00 | 0.00 | 0.00 | 26 | 1014.0 |
| 20260507042104 | 77 | 54 | 0.0 | 0.0 | 0.00 | 0.00 | 0.00 | 25 | 1013.6 |
| 20260507041601 | 77 | 269 | 0.0 | 0.0 | 0.00 | 0.00 | 0.00 | 25 | 1013.5 |
| 20260507041058 | 77 | 133 | 0.0 | 0.0 | 0.00 | 0.00 | 0.00 | 25 | 1013.6 |
| 20260507040554 | 77 | 106 | 0.0 | 0.0 | 0.00 | 0.00 | 0.00 | 25 | 1013.4 |
| 20260507040051 | 77 | 85 | 0.0 | 0.0 | 0.00 | 0.00 | 0.00 | 25 | 1013.3 |
| 20260507035547 | 77 | 349 | 0.0 | 0.0 | 0.00 | 0.00 | 0.00 | 25 | 1013.2 |
| 20260507035043 | 77 | 133 | 0.0 | 0.9 | 0.00 | 0.00 | 0.00 | 25 | 1013.2 |
| 20260507034540 | 78 | 152 | 0.0 | 0.0 | 0.00 | 0.00 | 0.00 | 25 | 1013.1 |
| 20260507034038 | 78 | 1 | 0.0 | 0.9 | 0.00 | 0.00 | 0.00 | 24 | 1013.1 |
| 20260507033536 | 78 | 298 | 0.0 | 1.7 | 0.00 | 0.00 | 0.00 | 24 | 1013.3 |
| 20260507033033 | 79 | 249 | 0.0 | 1.7 | 0.00 | 0.00 | 0.00 | 24 | 1013.1 |
| 20260507032530 | 79 | 293 | 1.7 | 4.3 | 0.00 | 0.00 | 0.00 | 24 | 1013.0 |
| 20260507032026 | 79 | 53 | 0.0 | 0.0 | 0.00 | 0.00 | 0.00 | 24 | 1013.0 |
| 20260507031522 | 79 | 152 | 0.0 | 0.9 | 0.00 | 0.00 | 0.00 | 23 | 1013.0 |
| 20260507031020 | 79 | 217 | 0.0 | 0.9 | 0.00 | 0.00 | 0.00 | 23 | 1013.0 |
| 20260507030516 | 79 | 70 | 0.0 | 1.7 | 0.00 | 0.00 | 0.00 | 23 | 1013.0 |
| 20260507030014 | 79 | 250 | 0.9 | 4.3 | 0.00 | 0.00 | 0.00 | 23 | 1012.8 |
| 20260507025511 | 79 | 167 | 0.0 | 0.0 | 0.00 | 0.00 | 0.00 | 23 | 1012.8 |
| 20260507025009 | 80 | 116 | 0.0 | 0.0 | 0.00 | 0.00 | 0.00 | 23 | 1012.7 |
| 20260507024506 | 80 | 221 | 0.0 | 0.0 | 0.00 | 0.00 | 0.00 | 23 | 1012.6 |
| 20260507024002 | 80 | 145 | 0.0 | 1.7 | 0.00 | 0.00 | 0.00 | 23 | 1012.8 |
| 20260507023458 | 80 | 289 | 0.0 | 0.9 | 0.00 | 0.00 | 0.00 | 23 | 1012.7 |
| 20260507022956 | 80 | 216 | 0.0 | 0.0 | 0.00 | 0.00 | 0.00 | 23 | 1012.8 |
| 20260507022453 | 80 | 262 | 0.0 | 2.6 | 0.00 | 0.00 | 0.00 | 23 | 1012.4 |
| 20260507021948 | 80 | 241 | 2.6 | 4.3 | 0.00 | 0.00 | 0.00 | 22 | 1012.5 |
| 20260507021444 | 80 | 106 | 0.0 | 2.6 | 0.00 | 0.00 | 0.00 | 23 | 1012.5 |
| 20260507020941 | 81 | 216 | 0.9 | 2.6 | 0.00 | 0.00 | 0.00 | 22 | 1012.4 |
| 20260507020438 | 81 | 236 | 0.0 | 2.6 | 0.00 | 0.00 | 0.00 | 22 | 1012.4 |
| 20260507015935 | 81 | 242 | 1.7 | 5.2 | 0.00 | 0.00 | 0.00 | 22 | 1012.3 |
| 20260507015434 | 81 | 226 | 2.6 | 2.6 | 0.00 | 0.00 | 0.00 | 22 | 1012.4 |
| 20260507014930 | 82 | 242 | 0.9 | 1.7 | 0.00 | 0.00 | 0.00 | 22 | 1012.3 |
| 20260507014427 | 82 | 303 | 0.9 | 1.7 | 0.00 | 0.00 | 0.00 | 22 | 1012.4 |
| 20260507013923 | 82 | 164 | 0.0 | 1.7 | 0.00 | 0.00 | 0.00 | 21 | 1012.5 |
| 20260507013420 | 82 | 201 | 0.0 | 0.9 | 0.00 | 0.00 | 0.00 | 21 | 1012.2 |
| 20260507012918 | 82 | 248 | 3.5 | 5.2 | 0.00 | 0.00 | 0.00 | 21 | 1012.5 |
| 20260507012414 | 82 | 296 | 3.5 | 4.3 | 0.00 | 0.00 | 0.00 | 21 | 1012.2 |
| 20260507011911 | 83 | 196 | 0.0 | 0.0 | 0.00 | 0.00 | 0.00 | 21 | 1012.2 |
| 20260507011408 | 83 | 150 | 0.0 | 2.6 | 0.00 | 0.00 | 0.00 | 21 | 1012.3 |
| 20260507010907 | 83 | 275 | 1.7 | 2.6 | 0.00 | 0.00 | 0.00 | 21 | 1012.1 |
| 20260507010403 | 84 | 284 | 4.3 | 5.2 | 0.00 | 0.00 | 0.00 | 20 | 1012.2 |
| 20260507005901 | 84 | 348 | 0.0 | 0.0 | 0.00 | 0.00 | 0.00 | 20 | 1012.0 |
| 20260507005357 | 83 | 334 | 0.0 | 0.0 | 0.00 | 0.00 | 0.00 | 20 | 1012.2 |
| 20260507004854 | 84 | 273 | 0.0 | 2.6 | 0.00 | 0.00 | 0.00 | 20 | 1012.2 |
| 20260507004351 | 84 | 226 | 0.0 | 0.9 | 0.00 | 0.00 | 0.00 | 20 | 1012.2 |
| 20260507003850 | 83 | 294 | 0.0 | 1.7 | 0.00 | 0.00 | 0.00 | 20 | 1011.9 |
| 20260507003344 | 84 | 304 | 0.0 | 4.3 | 0.00 | 0.00 | 0.00 | 20 | 1012.1 |
| 20260507002839 | 83 | 296 | 3.5 | 6.1 | 0.00 | 0.00 | 0.00 | 21 | 1012.3 |
| 20260507002335 | 83 | 90 | 0.0 | 1.7 | 0.00 | 0.00 | 0.00 | 21 | 1012.3 |
| 20260507001833 | 83 | 95 | 0.0 | 1.7 | 0.00 | 0.00 | 0.00 | 21 | 1012.1 |
| 20260507001329 | 83 | 77 | 0.0 | 0.9 | 0.00 | 0.00 | 0.00 | 20 | 1012.2 |
| 20260507000825 | 84 | 71 | 0.0 | 0.0 | 0.00 | 0.00 | 0.00 | 21 | 1012.3 |
| 20260507000321 | 84 | 97 | 0.0 | 0.0 | 0.00 | 0.00 | 0.00 | 20 | 1012.3 |
| 20260506235818 | 83 | 320 | 1.7 | 4.3 | 0.00 | 0.00 | 0.00 | 21 | 1012.1 |
| 20260506235314 | 85 | 208 | 2.6 | 5.2 | 0.00 | 0.00 | 0.00 | 21 | 1012.1 |
| 20260506234811 | 85 | 98 | 0.0 | 0.0 | 0.00 | 0.00 | 0.00 | 20 | 1012.2 |
| 20260506234308 | 84 | 282 | 1.7 | 5.2 | 0.00 | 0.00 | 0.00 | 20 | 1012.3 |
| 20260506233806 | 83 | 65 | 0.0 | 0.0 | 0.00 | 0.00 | 0.00 | 21 | 1012.3 |
| 20260506233302 | 84 | 305 | 0.0 | 0.0 | 0.00 | 0.00 | 0.00 | 20 | 1012.2 |
| 20260506232759 | 83 | 299 | 1.7 | 7.0 | 0.00 | 0.00 | 0.00 | 21 | 1012.4 |
| 20260506232254 | 85 | 279 | 2.6 | 5.2 | 0.00 | 0.00 | 0.00 | 20 | 1012.4 |
| 20260506231751 | 84 | 125 | 0.0 | 0.0 | 0.00 | 0.00 | 0.00 | 20 | 1012.1 |
| 20260506231249 | 83 | 141 | 0.0 | 2.6 | 0.00 | 0.00 | 0.00 | 21 | 1012.4 |
| 20260506230746 | 84 | 173 | 0.0 | 0.0 | 0.00 | 0.00 | 0.00 | 20 | 1012.5 |
| 20260506230243 | 83 | 108 | 0.0 | 6.1 | 0.00 | 0.00 | 0.00 | 21 | 1012.4 |
| 20260506225739 | 83 | 277 | 2.6 | 6.1 | 0.00 | 0.00 | 0.00 | 21 | 1012.6 |
| 20260506225237 | 84 | 276 | 2.6 | 4.3 | 0.00 | 0.00 | 0.00 | 21 | 1012.5 |
| 20260506224733 | 84 | 56 | 0.0 | 0.9 | 0.00 | 0.00 | 0.00 | 21 | 1012.8 |
| 20260506224230 | 82 | 341 | 0.0 | 0.9 | 0.00 | 0.00 | 0.00 | 21 | 1012.7 |
| 20260506223726 | 82 | 296 | 1.7 | 7.0 | 0.00 | 0.00 | 0.00 | 22 | 1012.9 |
| 20260506223222 | 83 | 286 | 0.0 | 6.1 | 0.00 | 0.00 | 0.00 | 21 | 1012.8 |
| 20260506222719 | 83 | 175 | 0.0 | 0.9 | 0.00 | 0.00 | 0.00 | 21 | 1013.0 |
| 20260506222214 | 83 | 183 | 0.0 | 0.0 | 0.00 | 0.00 | 0.00 | 21 | 1012.8 |
| 20260506221713 | 82 | 222 | 2.6 | 4.3 | 0.00 | 0.00 | 0.00 | 22 | 1013.0 |
| 20260506221211 | 83 | 303 | 1.7 | 4.3 | 0.00 | 0.00 | 0.00 | 21 | 1013.2 |
| 20260506220707 | 83 | 186 | 0.0 | 4.3 | 0.00 | 0.00 | 0.00 | 21 | 1013.0 |
| 20260506220202 | 82 | 99 | 0.0 | 0.9 | 0.00 | 0.00 | 0.00 | 22 | 1013.2 |
| 20260506215659 | 81 | 300 | 0.0 | 0.0 | 0.00 | 0.00 | 0.00 | 22 | 1013.1 |
| 20260506215154 | 82 | 97 | 0.0 | 0.0 | 0.00 | 0.00 | 0.00 | 22 | 1013.2 |
| 20260506214651 | 82 | 300 | 2.6 | 5.2 | 0.00 | 0.00 | 0.00 | 22 | 1013.3 |
| 20260506214149 | 81 | 70 | 0.0 | 0.0 | 0.00 | 0.00 | 0.00 | 23 | 1013.3 |
| 20260506213647 | 80 | 49 | 0.0 | 4.3 | 0.00 | 0.00 | 0.00 | 23 | 1013.5 |
| 20260506213144 | 82 | 166 | 1.7 | 7.0 | 0.00 | 0.00 | 0.00 | 22 | 1013.4 |
| 20260506212642 | 81 | 300 | 4.3 | 7.8 | 0.00 | 0.00 | 0.00 | 22 | 1013.6 |
| 20260506212136 | 80 | 53 | 0.0 | 2.6 | 0.00 | 0.00 | 0.00 | 23 | 1013.8 |
| 20260506211632 | 80 | 176 | 0.0 | 1.7 | 0.00 | 0.00 | 0.00 | 23 | 1013.9 |
| 20260506211129 | 82 | 293 | 4.3 | 6.1 | 0.00 | 0.00 | 0.00 | 23 | 1014.0 |
| 20260506210626 | 81 | 247 | 2.6 | 5.2 | 0.00 | 0.00 | 0.00 | 22 | 1014.0 |
| 20260506210123 | 80 | 131 | 0.0 | 0.0 | 0.00 | 0.00 | 0.00 | 22 | 1013.9 |
| 20260506205619 | 80 | 45 | 0.0 | 0.0 | 0.00 | 0.00 | 0.00 | 23 | 1014.2 |
| 20260506205114 | 80 | 285 | 2.6 | 6.1 | 0.00 | 0.00 | 0.00 | 23 | 1014.2 |
| 20260506204612 | 78 | 312 | 0.0 | 1.7 | 0.00 | 0.00 | 0.00 | 24 | 1014.4 |
| 20260506204109 | 78 | 94 | 4.3 | 7.8 | 0.00 | 0.00 | 0.00 | 23 | 1014.3 |
| 20260506203608 | 79 | 48 | 1.7 | 2.6 | 0.00 | 0.00 | 0.00 | 23 | 1014.4 |
| 20260506203104 | 80 | 37 | 2.6 | 5.2 | 0.00 | 0.00 | 0.00 | 23 | 1014.5 |
| 20260506202602 | 80 | 293 | 2.6 | 4.3 | 0.00 | 0.00 | 0.00 | 23 | 1014.6 |
| 20260506202058 | 80 | 216 | 2.6 | 6.1 | 0.00 | 0.00 | 0.00 | 23 | 1014.7 |
| 20260506201555 | 80 | 325 | 2.6 | 7.0 | 0.00 | 0.00 | 0.00 | 23 | 1014.7 |
| 20260506201052 | 80 | 75 | 0.0 | 0.9 | 0.00 | 0.00 | 0.00 | 22 | 1014.7 |
| 20260506200548 | 80 | 320 | 0.9 | 2.6 | 0.00 | 0.00 | 0.00 | 22 | 1014.6 |
| 20260506200045 | 79 | 269 | 3.5 | 6.1 | 0.00 | 0.00 | 0.00 | 23 | 1014.6 |
| 20260506195541 | 79 | 34 | 0.9 | 6.1 | 0.00 | 0.00 | 0.00 | 23 | 1014.7 |
| 20260506195038 | 78 | 90 | 0.0 | 0.9 | 0.00 | 0.00 | 0.00 | 24 | 1014.9 |
| 20260506194536 | 77 | 257 | 5.2 | 6.1 | 0.00 | 0.00 | 0.00 | 24 | 1015.0 |
| 20260506194032 | 77 | 295 | 6.1 | 7.0 | 0.00 | 0.00 | 0.00 | 24 | 1015.0 |
| 20260506193529 | 77 | 340 | 3.5 | 8.7 | 0.00 | 0.00 | 0.00 | 25 | 1015.1 |
| 20260506193026 | 79 | 1 | 4.3 | 5.2 | 0.00 | 0.00 | 0.00 | 24 | 1015.3 |
| 20260506192523 | 78 | 72 | 0.9 | 4.3 | 0.00 | 0.00 | 0.00 | 24 | 1015.3 |
| 20260506192019 | 77 | 156 | 0.0 | 5.2 | 0.00 | 0.00 | 0.00 | 25 | 1015.4 |
| 20260506191516 | 78 | 277 | 2.6 | 2.6 | 0.00 | 0.00 | 0.00 | 24 | 1015.4 |
| 20260506191012 | 78 | 137 | 0.0 | 7.0 | 0.00 | 0.00 | 0.00 | 25 | 1015.4 |
| 20260506190509 | 78 | 97 | 0.0 | 1.7 | 0.00 | 0.00 | 0.00 | 25 | 1015.5 |
| 20260506190006 | 77 | 111 | 0.0 | 0.9 | 0.00 | 0.00 | 0.00 | 25 | 1015.6 |
| 20260506185504 | 78 | 76 | 0.0 | 2.6 | 0.00 | 0.00 | 0.00 | 25 | 1015.7 |
| 20260506185000 | 76 | 89 | 0.9 | 4.3 | 0.00 | 0.00 | 0.00 | 24 | 1015.9 |
| 20260506184457 | 77 | 42 | 0.0 | 1.7 | 0.00 | 0.00 | 0.00 | 26 | 1015.9 |
| 20260506183954 | 76 | 287 | 3.5 | 5.2 | 0.00 | 0.00 | 0.00 | 26 | 1016.0 |
| 20260506183450 | 77 | 30 | 0.0 | 4.3 | 0.00 | 0.00 | 0.00 | 26 | 1015.9 |
| 20260506182947 | 77 | 114 | 0.0 | 2.6 | 0.00 | 0.00 | 0.00 | 27 | 1016.1 |
| 20260506182444 | 76 | 53 | 0.0 | 2.6 | 0.00 | 0.00 | 0.00 | 28 | 1016.3 |
| 20260506181941 | 75 | 65 | 0.0 | 0.0 | 0.00 | 0.00 | 0.00 | 28 | 1016.2 |
| 20260506181439 | 76 | 187 | 0.0 | 1.7 | 0.00 | 0.00 | 0.00 | 28 | 1016.3 |
| 20260506180936 | 75 | 11 | 0.0 | 6.1 | 0.00 | 0.00 | 0.00 | 29 | 1016.4 |
| 20260506180432 | 75 | 218 | 0.9 | 5.2 | 0.00 | 0.00 | 0.00 | 29 | 1016.3 |
| 20260506175929 | 75 | 355 | 0.0 | 0.0 | 0.00 | 0.00 | 0.00 | 30 | 1016.3 |
| 20260506175426 | 75 | 73 | 0.0 | 4.3 | 0.00 | 0.00 | 0.00 | 30 | 1016.6 |
| 20260506174923 | 75 | 57 | 0.0 | 0.9 | 0.00 | 0.00 | 0.00 | 30 | 1016.3 |
| 20260506174420 | 76 | 138 | 0.0 | 0.9 | 0.00 | 0.00 | 0.00 | 29 | 1016.4 |
| 20260506173917 | 74 | 50 | 0.0 | 0.0 | 0.00 | 0.00 | 0.00 | 30 | 1016.4 |
| 20260506173414 | 74 | 92 | 0.0 | 4.3 | 0.00 | 0.00 | 0.00 | 31 | 1016.6 |
| 20260506172911 | 74 | 305 | 0.9 | 4.3 | 0.00 | 0.00 | 0.00 | 31 | 1016.3 |
| 20260506172408 | 73 | 294 | 3.5 | 5.2 | 0.00 | 0.00 | 0.00 | 32 | 1016.6 |
| 20260506171905 | 73 | 355 | 1.7 | 5.2 | 0.00 | 0.00 | 0.00 | 32 | 1016.4 |
| 20260506171402 | 73 | 177 | 0.9 | 5.2 | 0.00 | 0.00 | 0.00 | 31 | 1016.3 |
| 20260506170900 | 73 | 228 | 0.0 | 1.7 | 0.00 | 0.00 | 0.00 | 32 | 1016.3 |
| 20260506170356 | 73 | 85 | 0.0 | 2.6 | 0.00 | 0.00 | 0.00 | 33 | 1016.3 |
| 20260506165855 | 73 | 100 | 0.0 | 1.7 | 0.00 | 0.00 | 0.00 | 32 | 1016.2 |
| 20260506165353 | 73 | 2 | 0.0 | 2.6 | 0.00 | 0.00 | 0.00 | 32 | 1016.4 |
| 20260506164849 | 72 | 117 | 0.0 | 1.7 | 0.00 | 0.00 | 0.00 | 33 | 1016.2 |
| 20260506164345 | 72 | 241 | 2.6 | 2.6 | 0.00 | 0.00 | 0.00 | 33 | 1016.4 |
| 20260506163843 | 72 | 258 | 0.9 | 4.3 | 0.00 | 0.00 | 0.00 | 34 | 1016.2 |
| 20260506163337 | 72 | 49 | 0.0 | 0.9 | 0.00 | 0.00 | 0.00 | 33 | 1016.4 |
| 20260506162833 | 71 | 320 | 0.0 | 0.0 | 0.00 | 0.00 | 0.00 | 33 | 1016.8 |
| 20260506162332 | 71 | 84 | 0.0 | 0.0 | 0.00 | 0.00 | 0.00 | 34 | 1016.3 |
| 20260506161829 | 71 | 220 | 0.0 | 1.7 | 0.00 | 0.00 | 0.00 | 34 | 1016.3 |
| 20260506161326 | 71 | 108 | 0.0 | 0.0 | 0.00 | 0.00 | 0.00 | 34 | 1016.3 |
| 20260506160824 | 71 | 174 | 0.0 | 0.0 | 0.00 | 0.00 | 0.00 | 34 | 1016.3 |
| 20260506160320 | 71 | 55 | 0.0 | 1.7 | 0.00 | 0.00 | 0.00 | 35 | 1016.2 |
| 20260506155819 | 70 | 74 | 0.0 | 0.0 | 0.00 | 0.00 | 0.00 | 35 | 1016.3 |
| 20260506155315 | 70 | 123 | 0.0 | 0.0 | 0.00 | 0.00 | 0.00 | 34 | 1016.1 |
| 20260506153427 | 69 | 113 | 0.0 | 0.9 | 0.00 | 0.00 | 0.00 | 36 | 1016.2 |
| 20260506152925 | 68 | 96 | 0.0 | 0.9 | 0.00 | 0.00 | 0.00 | 37 | 1016.3 |
| 20260506152421 | 67 | 34 | 0.0 | 0.9 | 0.00 | 0.00 | 0.00 | 39 | 1016.2 |
| 20260506151920 | 68 | 52 | 0.0 | 0.9 | 0.00 | 0.00 | 0.00 | 38 | 1016.3 |
| 20260506151417 | 68 | 60 | 0.0 | 0.0 | 0.00 | 0.00 | 0.00 | 38 | 1016.4 |
| 20260506150914 | 68 | 75 | 0.0 | 0.0 | 0.00 | 0.00 | 0.00 | 38 | 1016.7 |
| 20260506150410 | 67 | 6 | 0.0 | 0.0 | 0.00 | 0.00 | 0.00 | 40 | 1016.6 |
| 20260506145907 | 67 | 80 | 0.0 | 0.0 | 0.00 | 0.00 | 0.00 | 40 | 1016.3 |
| 20260506145403 | 67 | 62 | 0.0 | 0.0 | 0.00 | 0.00 | 0.00 | 40 | 1016.3 |
| 20260506144901 | 66 | 89 | 0.0 | 0.0 | 0.00 | 0.00 | 0.00 | 41 | 1016.2 |
| 20260506144357 | 66 | 77 | 0.0 | 0.0 | 0.00 | 0.00 | 0.00 | 42 | 1016.1 |
| 20260506143856 | 66 | 42 | 0.0 | 0.0 | 0.00 | 0.00 | 0.00 | 42 | 1016.3 |